{"data":{"norad_id":67265,"epoch":"2026-09-19T23:52:23.746656Z","epoch_age_seconds":146695,"freshness":"FRESH","line1":"1 67265U 25313T   26262.99471929  .00005463  00000+0  22324-3 0  9991","line2":"2 67265  97.3852 336.3130 0014651  36.5722 323.6513 15.24688076 40399","mean_motion":15.24688076,"eccentricity":0.0014651,"inclination_deg":97.3852,"raan_deg":336.313,"arg_perigee_deg":36.5722,"mean_anomaly_deg":323.6513,"bstar":0.00022324,"rev_number":4039,"period_min":94.445547431434,"perigee_km":481.65721043007,"apogee_km":501.78727197864,"semimajor_km":6869.8592412044,"source":"CELESTRAK","updated_at":"2026-09-21T09:00:16.515749Z"}}